GW5461 Weather Reports


time (UTC)temp
C
wind
direction
speed
KPH
gust
KPH
rain 1hr
cm
rain 24hr
cm
rain mn
cm
humidity
%
barometer
mb
20260906225802 19 354 6.4 9.7 0.00 0.00 0.00 70 1016.7
20260906225258 18 35 8.0 11.3 0.00 0.00 0.00 71 1016.9
20260906224754 18 335 9.7 12.9 0.00 0.00 0.00 72 1017.0
20260906224250 18 10 6.4 11.3 0.00 0.00 0.00 72 1017.1
20260906223746 18 6 6.4 9.7 0.00 0.00 0.00 72 1017.0
20260906223242 18 321 9.7 12.9 0.00 0.00 0.00 73 1017.0
20260906222740 18 329 11.3 14.5 0.00 0.00 0.00 72 1017.1
20260906222233 18 347 8.0 9.7 0.00 0.00 0.00 72 1017.2
20260906221731 18 320 9.7 14.5 0.00 0.00 0.00 73 1017.2
20260906221226 18 329 11.3 16.1 0.00 0.00 0.00 72 1017.0
20260906220722 18 320 9.7 14.5 0.00 0.00 0.00 72 1017.0
20260906220217 18 326 12.9 16.1 0.00 0.00 0.00 73 1017.0
20260906215715 18 7 11.3 14.5 0.00 0.00 0.00 71 1016.9
20260906215214 18 323 8.0 9.7 0.00 0.00 0.00 73 1016.8
20260906214712 18 337 6.4 9.7 0.00 0.00 0.00 74 1016.8
20260906214209 17 27 11.3 14.5 0.00 0.00 0.00 74 1017.0
20260906213707 17 7 8.0 11.3 0.00 0.00 0.00 75 1017.1
20260906213202 17 8 8.0 11.3 0.00 0.00 0.00 75 1017.1
20260906212659 17 47 8.0 11.3 0.00 0.00 0.00 74 1016.8
20260906212155 17 17 9.7 12.9 0.00 0.00 0.00 75 1017.1
20260906211655 17 349 11.3 12.9 0.00 0.00 0.00 75 1017.1
20260906211150 17 353 12.9 16.1 0.00 0.00 0.00 74 1017.1
20260906210646 18 353 9.7 14.5 0.00 0.00 0.00 74 1017.1
20260906210145 18 25 6.4 9.7 0.00 0.00 0.00 72 1017.2
20260906205641 17 134 3.2 4.8 0.00 0.00 0.00 74 1017.1
20260906205137 17 330 3.2 4.8 0.00 0.00 0.00 74 1017.3
20260906204636 17 15 1.6 1.6 0.00 0.00 0.00 75 1017.1
20260906204131 17 18 4.8 6.4 0.00 0.00 0.00 75 1017.4
20260906203626 17 14 6.4 6.4 0.00 0.00 0.00 75 1017.4
20260906203125 17 43 3.2 6.4 0.00 0.00 0.00 75 1017.4
20260906202623 17 343 8.0 9.7 0.00 0.00 0.00 74 1017.4
20260906202122 17 359 9.7 14.5 0.00 0.00 0.00 74 1017.3
20260906201617 17 329 9.7 12.9 0.00 0.00 0.00 73 1017.3
20260906201116 17 14 8.0 12.9 0.00 0.00 0.00 74 1017.2
20260906200613 17 357 11.3 14.5 0.00 0.00 0.00 73 1017.2
20260906200108 18 12 8.0 11.3 0.00 0.00 0.00 72 1017.2
20260906195603 17 224 3.2 6.4 0.00 0.00 0.00 73 1017.2
20260906195100 18 75 1.6 3.2 0.00 0.00 0.00 71 1017.4
20260906194556 18 285 1.6 1.6 0.00 0.00 0.00 70 1017.3
20260906194051 17 357 14.5 16.1 0.00 0.00 0.00 72 1017.2
20260906193550 17 36 8.0 11.3 0.00 0.00 0.00 71 1017.0
20260906193046 17 341 17.7 20.9 0.00 0.00 0.00 70 1017.0
20260906192541 17 27 14.5 17.7 0.00 0.00 0.00 69 1017.1
20260906192040 17 258 11.3 14.5 0.00 0.00 0.00 70 1017.1
20260906191536 16 17 16.1 27.4 0.00 0.00 0.00 72 1017.3
20260906191034 17 309 12.9 16.1 0.00 0.00 0.00 70 1017.3
20260906190534 17 5 11.3 16.1 0.00 0.00 0.00 70 1017.6
20260906190029 17 40 12.9 16.1 0.00 0.00 0.00 70 1017.7
20260906185528 16 335 3.2 4.8 0.00 0.00 0.00 71 1017.2
20260906185027 16 137 1.6 3.2 0.00 0.00 0.00 72 1017.7
20260906184522 16 9 11.3 12.9 0.00 0.00 0.00 71 1017.7
20260906184018 16 35 9.7 14.5 0.00 0.00 0.00 71 1017.7
20260906183514 16 17 8.0 11.3 0.00 0.00 0.00 73 1017.2
20260906183009 16 96 8.0 12.9 0.00 0.00 0.00 74 1017.3
20260906182504 15 38 8.0 9.7 0.00 0.00 0.00 75 1017.6
20260906182000 15 63 17.7 24.1 0.00 0.00 0.00 76 1017.6
20260906181456 15 29 24.1 27.4 0.00 0.00 0.00 76 1018.0
20260906180951 14 339 14.5 20.9 0.00 0.00 0.00 80 1018.4
20260906180446 14 356 11.3 14.5 0.00 0.00 0.00 81 1018.7
20260906175945 14 327 19.3 22.5 0.00 0.00 0.00 82 1018.5
20260906175445 13 11 14.5 17.7 0.00 0.00 0.00 83 1018.7
20260906174944 13 350 17.7 22.5 0.00 0.00 0.00 84 1018.8
20260906174443 13 328 12.9 14.5 0.00 0.00 0.00 84 1019.1
20260906173938 13 33 16.1 17.7 0.00 0.00 0.00 85 1018.9
20260906173433 13 12 8.0 9.7 0.00 0.00 0.00 85 1019.3
20260906172933 13 318 19.3 24.1 0.00 0.00 0.00 85 1019.4
20260906172430 13 11 9.7 11.3 0.00 0.00 0.00 86 1019.2
20260906171924 13 353 19.3 24.1 0.00 0.00 0.00 86 1019.3
20260906171419 13 358 17.7 25.7 0.00 0.00 0.00 86 1019.4
20260906170915 13 3 20.9 22.5 0.00 0.00 0.00 85 1019.1
20260906170412 13 332 11.3 14.5 0.00 0.00 0.00 85 1019.3
20260906165908 14 4 16.1 17.7 0.00 0.00 0.00 85 1019.2
20260906165407 14 345 17.7 22.5 0.00 0.00 0.00 84 1019.2
20260906164902 14 23 8.0 9.7 0.00 0.00 0.00 86 1019.1
20260906164401 14 25 9.7 20.9 0.00 0.00 0.00 89 1019.2
20260906163857 13 10 4.8 6.4 0.00 0.00 0.00 90 1019.1
20260906163353 14 17 4.8 6.4 0.00 0.00 0.00 90 1019.3
20260906162850 14 3 9.7 12.9 0.00 0.00 0.00 89 1019.3
20260906162349 14 0 4.8 16.1 0.00 0.00 0.00 89 1019.2
20260906161844 14 12 9.7 11.3 0.00 0.00 0.00 90 1019.3
20260906161344 14 46 9.7 12.9 0.00 0.00 0.00 90 1019.3
20260906160842 14 0 4.8 6.4 0.00 0.00 0.00 90 1019.4
20260906160336 13 7 9.7 12.9 0.00 0.00 0.00 88 1019.5
20260906155835 13 328 6.4 9.7 0.00 0.00 0.00 88 1019.7
20260906155329 14 302 8.0 11.3 0.00 0.00 0.00 88 1019.9
20260906154825 14 44 6.4 9.7 0.00 0.00 0.00 89 1019.9
20260906154320 14 292 6.4 6.4 0.00 0.00 0.00 89 1019.9
20260906153819 14 305 1.6 3.2 0.00 0.00 0.00 89 1019.9
20260906153318 14 350 4.8 6.4 0.00 0.00 0.00 89 1019.8
20260906152813 14 37 1.6 3.2 0.00 0.00 0.00 89 1020.1
20260906152308 14 39 4.8 4.8 0.00 0.00 0.00 89 1019.7
20260906151807 14 22 1.6 1.6 0.00 0.00 0.00 89 1019.5
20260906151303 14 347 4.8 6.4 0.00 0.00 0.00 89 1019.8
20260906150758 14 23 4.8 4.8 0.00 0.00 0.00 89 1019.9
20260906150254 14 354 3.2 4.8 0.00 0.00 0.00 89 1020.0
20260906145753 14 2 3.2 3.2 0.00 0.00 0.00 89 1019.7
20260906145251 14 21 3.2 3.2 0.00 0.00 0.00 89 1019.8
20260906144747 14 7 4.8 6.4 0.00 0.00 0.00 89 1019.8
20260906144242 14 179 0.0 0.0 0.00 0.00 0.00 89 1019.7
20260906143741 14 87 0.0 0.0 0.00 0.00 0.00 89 1019.4
20260906143238 14 99 1.6 3.2 0.00 0.00 0.00 90 1019.5
20260906142738 14 30 4.8 9.7 0.00 0.00 0.00 90 1019.5
20260906142233 14 56 3.2 6.4 0.00 0.00 0.00 91 1020.0
20260906141732 14 358 1.6 1.6 0.00 0.00 0.00 92 1019.8
20260906141227 13 350 1.6 3.2 0.00 0.00 0.00 92 1020.1
20260906140727 13 25 1.6 1.6 0.00 0.00 0.00 93 1020.0
20260906140221 13 340 3.2 4.8 0.00 0.00 0.00 93 1019.9
20260906135718 13 11 4.8 6.4 0.00 0.00 0.00 94 1019.8
20260906135214 12 8 3.2 4.8 0.00 0.00 0.00 94 1019.5
20260906134709 12 50 3.2 4.8 0.00 0.00 0.00 95 1019.4
20260906134204 12 132 0.0 0.0 0.00 0.00 0.00 95 1019.7
20260906133700 12 13 3.2 4.8 0.00 0.00 0.00 96 1019.5
20260906133155 12 49 1.6 3.2 0.00 0.00 0.00 96 1019.7
20260906132651 12 30 3.2 6.4 0.00 0.00 0.00 96 1019.5
20260906132146 12 13 4.8 4.8 0.00 0.00 0.00 96 1019.5
20260906131642 12 25 3.2 4.8 0.00 0.00 0.00 96 1019.4
20260906131136 12 357 8.0 11.3 0.00 0.00 0.00 96 1019.8
20260906130632 12 359 4.8 4.8 0.00 0.00 0.00 96 1020.0
20260906130127 12 352 8.0 11.3 0.00 0.00 0.00 96 1020.1
20260906125625 12 39 4.8 4.8 0.00 0.00 0.00 96 1020.2
20260906125123 12 33 4.8 6.4 0.00 0.00 0.00 97 1019.9
20260906124619 12 8 6.4 9.7 0.00 0.00 0.00 97 1020.0
20260906124114 12 14 6.4 11.3 0.00 0.00 0.00 97 1019.7
20260906123614 12 324 6.4 9.7 0.00 0.00 0.00 96 1019.7
20260906123109 12 12 6.4 6.4 0.00 0.00 0.00 96 1019.9
20260906122608 12 21 6.4 6.4 0.00 0.00 0.00 96 1019.8
20260906122104 12 36 8.0 11.3 0.00 0.00 0.00 96 1019.7
20260906121600 12 36 9.7 11.3 0.00 0.00 0.00 96 1019.8
20260906121056 12 1 11.3 14.5 0.00 0.00 0.00 96 1019.9
20260906120551 12 42 11.3 16.1 0.00 0.00 0.00 96 1019.8
20260906120049 12 342 8.0 9.7 0.00 0.00 0.00 96 1019.8
20260906115549 12 5 9.7 11.3 0.00 0.00 0.00 96 1019.7
20260906115044 12 23 11.3 12.9 0.00 0.00 0.00 96 1019.7
20260906114543 12 2 11.3 14.5 0.00 0.00 0.00 96 1019.5
20260906114039 12 24 8.0 11.3 0.00 0.00 0.00 95 1019.5
20260906113537 12 8 9.7 11.3 0.00 0.00 0.00 95 1019.5
20260906113033 12 38 8.0 11.3 0.00 0.00 0.00 95 1019.5
20260906112528 12 33 9.7 14.5 0.00 0.00 0.00 95 1019.7
20260906112025 12 349 8.0 11.3 0.00 0.00 0.00 95 1020.0
20260906111524 12 22 9.7 12.9 0.00 0.00 0.00 95 1019.9
20260906111020 12 29 8.0 11.3 0.00 0.00 0.00 95 1019.9
20260906110514 12 357 11.3 16.1 0.00 0.00 0.00 95 1019.8
20260906110013 12 351 14.5 20.9 0.00 0.00 0.00 95 1020.0
20260906105509 12 1 8.0 11.3 0.00 0.00 0.00 95 1019.9
20260906105005 12 2 8.0 11.3 0.00 0.00 0.00 95 1019.8
20260906104503 12 0 9.7 12.9 0.00 0.00 0.00 95 1019.7
20260906104003 12 353 8.0 9.7 0.00 0.00 0.00 95 1019.8
20260906103501 12 344 11.3 14.5 0.00 0.00 0.00 95 1019.8
20260906102956 12 11 14.5 17.7 0.00 0.00 0.00 95 1019.9
20260906102451 12 10 12.9 17.7 0.00 0.00 0.00 95 1020.0
20260906101950 12 340 20.9 27.4 0.00 0.00 0.00 96 1020.3
20260906101446 12 20 14.5 20.9 0.00 0.00 0.00 96 1020.1
20260906100941 12 27 14.5 17.7 0.00 0.00 0.00 96 1020.3
20260906100436 12 13 9.7 11.3 0.00 0.00 0.00 96 1019.9
20260906095935 12 344 14.5 17.7 0.00 0.00 0.00 95 1019.8
20260906095431 12 355 9.7 17.7 0.00 0.00 0.00 95 1019.9
20260906094926 12 36 12.9 16.1 0.00 0.00 0.00 95 1019.5
20260906094420 12 341 14.5 17.7 0.00 0.00 0.00 95 1019.9
20260906093916 12 358 12.9 17.7 0.00 0.00 0.00 95 1019.7
20260906093413 12 1 14.5 16.1 0.00 0.00 0.00 95 1019.8
20260906092907 12 40 14.5 16.1 0.00 0.00 0.00 95 1020.1
20260906092406 12 15 14.5 17.7 0.00 0.00 0.00 95 1020.1
20260906091902 12 37 9.7 12.9 0.00 0.00 0.00 94 1020.1
20260906091357 12 18 11.3 14.5 0.00 0.00 0.00 94 1020.2
20260906090854 12 20 11.3 14.5 0.00 0.00 0.00 94 1020.3
20260906090353 12 5 16.1 17.7 0.00 0.00 0.00 94 1020.5
20260906085849 12 15 16.1 20.9 0.00 0.00 0.00 94 1020.3
20260906085347 12 342 16.1 22.5 0.00 0.00 0.00 93 1020.4
20260906084842 12 327 14.5 16.1 0.00 0.00 0.00 94 1020.5
20260906084342 12 7 19.3 22.5 0.00 0.00 0.00 93 1020.5
20260906083836 12 32 17.7 24.1 0.00 0.00 0.00 93 1020.4
20260906083333 12 343 16.1 20.9 0.00 0.00 0.00 93 1020.4
20260906082832 12 0 16.1 22.5 0.00 0.00 0.00 93 1020.5
20260906082327 12 342 12.9 16.1 0.00 0.00 0.00 93 1020.6
20260906081823 12 0 14.5 17.7 0.00 0.00 0.00 92 1020.4
20260906081319 12 27 14.5 16.1 0.00 0.00 0.00 92 1020.3
20260906080814 12 41 12.9 16.1 0.00 0.00 0.00 91 1020.5
20260906080311 12 19 14.5 16.1 0.00 0.00 0.00 91 1020.4
20260906075810 12 33 9.7 14.5 0.00 0.00 0.00 91 1020.4
20260906075309 12 12 14.5 20.9 0.00 0.00 0.00 91 1020.4
20260906074805 12 28 11.3 14.5 0.00 0.00 0.00 90 1020.6
20260906074305 12 28 14.5 20.9 0.00 0.00 0.00 90 1020.9
20260906073804 12 1 12.9 17.7 0.00 0.00 0.00 90 1021.0
20260906073259 12 2 8.0 11.3 0.00 0.00 0.00 89 1020.9
20260906072755 12 34 6.4 11.3 0.00 0.00 0.00 89 1021.1
20260906072251 12 28 11.3 14.5 0.00 0.00 0.00 88 1021.0
20260906071747 12 359 11.3 14.5 0.00 0.00 0.00 88 1021.0
20260906071247 13 34 9.7 17.7 0.00 0.00 0.00 88 1021.0
20260906070743 13 53 17.7 22.5 0.00 0.00 0.00 87 1021.2
20260906070238 13 21 14.5 17.7 0.00 0.00 0.00 87 1021.1
20260906065738 13 44 11.3 16.1 0.00 0.00 0.00 86 1021.2
20260906065233 13 27 11.3 17.7 0.00 0.00 0.00 86 1021.6
20260906064729 13 36 12.9 20.9 0.00 0.00 0.00 86 1021.4
20260906064224 13 32 17.7 22.5 0.00 0.00 0.00 86 1021.6
20260906063719 13 2 17.7 20.9 0.00 0.00 0.00 86 1021.6
20260906063215 13 0 17.7 22.5 0.00 0.00 0.00 86 1021.4
20260906062710 13 341 9.7 14.5 0.00 0.00 0.00 86 1021.4
20260906062209 13 38 12.9 22.5 0.00 0.00 0.00 86 1021.4
20260906061706 13 313 14.5 20.9 0.00 0.00 0.00 85 1021.3
20260906061201 13 21 11.3 16.1 0.00 0.00 0.00 84 1021.5
20260906060656 13 24 11.3 16.1 0.00 0.00 0.00 84 1021.4
20260906060154 13 23 8.0 11.3 0.00 0.00 0.00 84 1021.5
20260906055649 13 24 12.9 16.1 0.00 0.00 0.00 84 1021.4
20260906055144 13 11 12.9 14.5 0.00 0.00 0.00 85 1021.5
20260906054639 13 346 9.7 16.1 0.00 0.00 0.00 84 1021.3
20260906054134 13 336 12.9 16.1 0.00 0.00 0.00 84 1021.3
20260906053631 13 354 8.0 11.3 0.00 0.00 0.00 84 1021.3
20260906053125 13 348 16.1 22.5 0.00 0.00 0.00 84 1021.1
20260906052621 13 13 12.9 17.7 0.00 0.00 0.00 84 1021.3
20260906052118 13 330 14.5 17.7 0.00 0.00 0.00 84 1021.2
20260906051613 13 10 9.7 14.5 0.00 0.00 0.00 84 1021.3
20260906051108 13 341 22.5 29.0 0.00 0.00 0.00 83 1021.2
20260906050604 13 357 17.7 20.9 0.00 0.00 0.00 83 1021.4
20260906050059 13 7 12.9 14.5 0.00 0.00 0.00 82 1021.6
20260906045557 13 29 20.9 29.0 0.00 0.00 0.00 81 1021.9
20260906045053 13 1 14.5 20.9 0.00 0.00 0.00 81 1021.7
20260906044548 13 323 19.3 24.1 0.00 0.00 0.00 80 1021.2
20260906044043 13 334 14.5 20.9 0.00 0.00 0.00 80 1020.9
20260906043539 13 348 17.7 20.9 0.00 0.00 0.00 80 1020.6
20260906043035 13 40 16.1 20.9 0.00 0.00 0.00 80 1020.8
20260906042534 13 357 14.5 17.7 0.00 0.00 0.00 79 1020.8
20260906042029 14 8 14.5 17.7 0.00 0.00 0.00 78 1020.5
20260906041525 14 20 16.1 25.7 0.00 0.00 0.00 78 1020.5
20260906041025 14 36 16.1 22.5 0.00 0.00 0.00 77 1020.6
20260906040520 14 343 14.5 22.5 0.00 0.00 0.00 76 1020.6
20260906040015 15 356 14.5 22.5 0.00 0.00 0.00 74 1020.8
20260906035510 15 48 19.3 24.1 0.00 0.00 0.00 74 1020.9
20260906035007 15 311 8.0 9.7 0.00 0.00 0.00 73 1020.9
20260906034506 15 34 25.7 30.6 0.00 0.00 0.00 73 1020.8
20260906034001 15 344 19.3 24.1 0.00 0.00 0.00 73 1021.0
20260906033455 15 342 12.9 14.5 0.00 0.00 0.00 73 1021.2
20260906032951 15 7 17.7 22.5 0.00 0.00 0.00 73 1021.4
20260906032449 15 333 14.5 20.9 0.00 0.00 0.00 73 1021.1
20260906031948 15 22 17.7 24.1 0.00 0.00 0.00 73 1020.4
20260906031443 15 345 14.5 20.9 0.00 0.00 0.00 73 1020.2
20260906030939 15 7 17.7 20.9 0.00 0.00 0.00 73 1020.2
20260906030433 15 17 12.9 17.7 0.00 0.00 0.00 73 1020.2
20260906025928 15 344 14.5 17.7 0.00 0.00 0.00 72 1019.9
20260906025428 15 21 12.9 16.1 0.00 0.00 0.00 72 1019.9
20260906024927 15 35 19.3 33.8 0.00 0.00 0.00 71 1019.8
20260906024426 15 2 17.7 27.4 0.00 0.00 0.00 71 1019.8
20260906023921 15 357 14.5 24.1 0.00 0.00 0.00 71 1019.5
20260906023418 15 12 11.3 14.5 0.00 0.00 0.00 71 1019.8
20260906022918 15 357 19.3 27.4 0.00 0.00 0.00 70 1019.7
20260906022413 15 339 14.5 16.1 0.00 0.00 0.00 70 1019.8
20260906021908 15 353 12.9 20.9 0.00 0.00 0.00 70 1019.7
20260906021409 15 344 12.9 20.9 0.00 0.00 0.00 69 1019.5
20260906020903 15 350 19.3 25.7 0.00 0.00 0.00 69 1019.7
20260906020403 15 14 16.1 20.9 0.00 0.00 0.00 69 1019.5
20260906015857 16 1 17.7 20.9 0.00 0.00 0.00 68 1019.8
20260906015356 16 356 19.3 30.6 0.00 0.00 0.00 67 1019.7
20260906014856 16 6 16.1 20.9 0.00 0.00 0.00 67 1019.9
20260906014356 16 340 17.7 24.1 0.00 0.00 0.00 67 1019.5
20260906013853 16 12 12.9 17.7 0.00 0.00 0.00 66 1019.5
20260906013348 16 37 14.5 17.7 0.00 0.00 0.00 66 1019.7
20260906012843 16 356 16.1 22.5 0.00 0.00 0.00 66 1019.5
20260906012338 17 353 17.7 22.5 0.00 0.00 0.00 65 1019.5
20260906011838 17 15 9.7 12.9 0.00 0.00 0.00 64 1019.7
20260906011333 17 6 9.7 12.9 0.00 0.00 0.00 62 1019.7
20260906010829 17 348 16.1 24.1 0.00 0.00 0.00 61 1019.4
20260906010325 17 36 12.9 16.1 0.00 0.00 0.00 60 1019.5
20260906005820 18 348 16.1 20.9 0.00 0.00 0.00 60 1019.8
20260906005319 18 344 16.1 24.1 0.00 0.00 0.00 58 1019.7
20260906004818 19 331 19.3 22.5 0.00 0.00 0.00 58 1019.5
20260906004318 20 51 11.3 16.1 0.00 0.00 0.00 57 1019.7
20260906003814 19 356 8.0 12.9 0.00 0.00 0.00 57 1019.8
20260906003309 20 345 22.5 27.4 0.00 0.00 0.00 56 1019.7
20260906002805 20 352 16.1 20.9 0.00 0.00 0.00 55 1019.5
20260906002306 20 339 9.7 12.9 0.00 0.00 0.00 53 1019.4
20260906001800 20 339 16.1 22.5 0.00 0.00 0.00 53 1019.4
20260906001300 20 346 14.5 17.7 0.00 0.00 0.00 52 1019.3
20260906000756 21 353 14.5 20.9 0.00 0.00 0.00 51 1019.5
20260906000256 20 345 11.3 14.5 0.00 0.00 0.00 51 1019.8
20260905235750 20 10 17.7 24.1 0.00 0.00 0.00 52 1019.4
20260905235250 21 331 14.5 17.7 0.00 0.00 0.00 49 1019.9
20260905234746 22 10 11.3 14.5 0.00 0.00 0.00 46 1019.5
20260905234241 22 342 8.0 11.3 0.00 0.00 0.00 44 1019.8
20260905233736 22 346 6.4 11.3 0.00 0.00 0.00 43 1019.8
20260905233235 22 42 8.0 12.9 0.00 0.00 0.00 44 1020.0
20260905232730 23 21 1.6 6.4 0.00 0.00 0.00 43 1019.9
20260905232226 22 348 9.7 11.3 0.00 0.00 0.00 43 1019.8
20260905231721 22 3 11.3 16.1 0.00 0.00 0.00 44 1019.8
20260905231217 22 29 4.8 9.7 0.00 0.00 0.00 43 1019.9
20260905230713 22 308 9.7 12.9 0.00 0.00 0.00 43 1019.7
20260905230211 23 21 6.4 9.7 0.00 0.00 0.00 39 1019.4